TimeEDT,TemperatureF,Dew PointF,Humidity,Sea Level PressureIn,VisibilityMPH,Wind Direction,Wind SpeedMPH,Gust SpeedMPH,PrecipitationIn,Events,Conditions,WindDirDegrees,DateUTC
12:17 AM,59.0,55.4,88,30.19,10.0,East,3.5,-,N/A,,Clear,80,2013-08-18 04:17:00
12:36 AM,57.2,53.6,88,30.19,10.0,Calm,Calm,-,N/A,,Clear,0,2013-08-18 04:36:00
12:56 AM,55.4,53.6,94,30.19,10.0,Calm,Calm,-,N/A,,Clear,0,2013-08-18 04:56:00
1:17 AM,55.4,51.8,88,30.20,10.0,Calm,Calm,-,N/A,,Clear,0,2013-08-18 05:17:00
1:36 AM,53.6,51.8,94,30.20,10.0,Calm,Calm,-,N/A,,Clear,0,2013-08-18 05:36:00
1:56 AM,53.6,51.8,94,30.20,10.0,Calm,Calm,-,N/A,,Clear,0,2013-08-18 05:56:00
2:17 AM,53.6,51.8,94,30.19,10.0,Calm,Calm,-,N/A,,Clear,0,2013-08-18 06:17:00
2:36 AM,53.6,51.8,94,30.19,10.0,Calm,Calm,-,N/A,,Clear,0,2013-08-18 06:36:00
2:57 AM,53.6,51.8,94,30.18,10.0,NNE,3.5,-,N/A,,Clear,30,2013-08-18 06:57:00
3:17 AM,53.6,51.8,94,30.18,10.0,Calm,Calm,-,N/A,,Clear,0,2013-08-18 07:17:00
3:36 AM,51.8,50.0,94,30.19,10.0,Calm,Calm,-,N/A,,Clear,0,2013-08-18 07:36:00
3:57 AM,53.6,51.8,94,30.18,10.0,Calm,Calm,-,N/A,,Clear,0,2013-08-18 07:57:00
4:17 AM,53.6,51.8,94,30.18,10.0,Calm,Calm,-,N/A,,Clear,0,2013-08-18 08:17:00
4:36 AM,51.8,50.0,94,30.18,10.0,Calm,Calm,-,N/A,,Clear,0,2013-08-18 08:36:00
4:57 AM,53.6,51.8,94,30.17,7.0,Calm,Calm,-,N/A,,Clear,0,2013-08-18 08:57:00
5:16 AM,53.6,51.8,94,30.18,10.0,Calm,Calm,-,N/A,,Clear,0,2013-08-18 09:16:00
5:36 AM,53.6,51.8,94,30.18,7.0,Calm,Calm,-,N/A,,Clear,0,2013-08-18 09:36:00
5:57 AM,53.6,51.8,94,30.18,10.0,Calm,Calm,-,N/A,,Clear,0,2013-08-18 09:57:00
6:16 AM,53.6,51.8,94,30.18,7.0,Calm,Calm,-,N/A,,Clear,0,2013-08-18 10:16:00
6:36 AM,55.4,53.6,94,30.18,10.0,Calm,Calm,-,N/A,,Clear,0,2013-08-18 10:36:00
6:57 AM,55.4,53.6,94,30.19,10.0,Calm,Calm,-,N/A,,Clear,0,2013-08-18 10:57:00
7:16 AM,55.4,53.6,94,30.19,7.0,Calm,Calm,-,N/A,,Clear,0,2013-08-18 11:16:00
7:36 AM,55.4,53.6,94,30.20,5.0,Calm,Calm,-,N/A,,Clear,0,2013-08-18 11:36:00
7:57 AM,55.4,53.6,94,30.20,7.0,Calm,Calm,-,N/A,,Clear,0,2013-08-18 11:57:00
8:16 AM,57.2,55.4,94,30.20,10.0,NE,3.5,-,N/A,,Clear,50,2013-08-18 12:16:00
8:36 AM,59.0,55.4,88,30.20,10.0,ENE,3.5,-,N/A,,Clear,70,2013-08-18 12:36:00
8:57 AM,60.8,57.2,88,30.22,10.0,Calm,Calm,-,N/A,,Clear,0,2013-08-18 12:57:00
9:16 AM,62.6,57.2,82,30.22,10.0,East,3.5,-,N/A,,Clear,90,2013-08-18 13:16:00
9:36 AM,62.6,57.2,82,30.22,10.0,Calm,Calm,-,N/A,,Clear,0,2013-08-18 13:36:00
9:57 AM,66.2,57.2,73,30.21,10.0,Calm,Calm,-,N/A,,Clear,0,2013-08-18 13:57:00
10:16 AM,66.2,57.2,73,30.22,10.0,Calm,Calm,-,N/A,,Scattered Clouds,0,2013-08-18 14:16:00
10:36 AM,68.0,59.0,73,30.21,10.0,Calm,Calm,-,N/A,,Overcast,0,2013-08-18 14:36:00
10:57 AM,69.8,60.8,73,30.22,10.0,Calm,Calm,-,N/A,,Mostly Cloudy,0,2013-08-18 14:57:00
11:16 AM,69.8,59.0,68,30.22,10.0,Calm,Calm,-,N/A,,Mostly Cloudy,0,2013-08-18 15:16:00
11:36 AM,73.4,60.8,65,30.22,10.0,Calm,Calm,-,N/A,,Overcast,0,2013-08-18 15:36:00
11:57 AM,71.6,60.8,69,30.21,10.0,Calm,Calm,-,N/A,,Overcast,0,2013-08-18 15:57:00
12:16 PM,71.6,60.8,69,30.21,10.0,Calm,Calm,-,N/A,,Mostly Cloudy,0,2013-08-18 16:16:00
12:37 PM,73.4,59.0,61,30.21,10.0,SSE,4.6,-,N/A,,Mostly Cloudy,150,2013-08-18 16:37:00
12:57 PM,75.2,59.0,57,30.20,10.0,East,3.5,-,N/A,,Overcast,90,2013-08-18 16:57:00
1:16 PM,73.4,59.0,61,30.19,10.0,East,3.5,-,N/A,,Mostly Cloudy,90,2013-08-18 17:16:00
1:37 PM,75.2,59.0,57,30.19,10.0,ESE,3.5,-,N/A,,Scattered Clouds,120,2013-08-18 17:37:00
1:57 PM,77.0,59.0,54,30.18,10.0,East,6.9,-,N/A,,Mostly Cloudy,90,2013-08-18 17:57:00
2:16 PM,77.0,59.0,54,30.18,10.0,SE,6.9,-,N/A,,Scattered Clouds,130,2013-08-18 18:16:00
2:37 PM,77.0,57.2,50,30.17,10.0,Calm,Calm,-,N/A,,Clear,0,2013-08-18 18:37:00
2:57 PM,77.0,59.0,54,30.17,10.0,Calm,Calm,-,N/A,,Scattered Clouds,0,2013-08-18 18:57:00
3:16 PM,77.0,59.0,54,30.17,10.0,ESE,4.6,-,N/A,,Scattered Clouds,110,2013-08-18 19:16:00
3:37 PM,77.0,59.0,54,30.16,10.0,ESE,4.6,-,N/A,,Mostly Cloudy,120,2013-08-18 19:37:00
3:57 PM,77.0,59.0,54,30.15,10.0,East,4.6,-,N/A,,Mostly Cloudy,100,2013-08-18 19:57:00
4:16 PM,77.0,60.8,57,30.15,10.0,East,5.8,-,N/A,,Overcast,90,2013-08-18 20:16:00
4:37 PM,75.2,59.0,57,30.15,10.0,East,4.6,-,N/A,,Mostly Cloudy,100,2013-08-18 20:37:00
4:57 PM,77.0,60.8,57,30.14,10.0,East,5.8,-,N/A,,Mostly Cloudy,90,2013-08-18 20:57:00
5:16 PM,75.2,59.0,57,30.15,10.0,SE,3.5,-,N/A,,Mostly Cloudy,140,2013-08-18 21:16:00
5:37 PM,77.0,60.8,57,30.14,10.0,SSE,4.6,-,N/A,,Scattered Clouds,150,2013-08-18 21:37:00
5:56 PM,75.2,60.8,61,30.14,10.0,SSE,3.5,-,N/A,,Clear,150,2013-08-18 21:56:00
6:16 PM,75.2,60.8,61,30.14,10.0,SE,4.6,-,N/A,,Clear,140,2013-08-18 22:16:00
6:37 PM,73.4,60.8,65,30.14,10.0,SE,5.8,-,N/A,,Scattered Clouds,140,2013-08-18 22:37:00
6:56 PM,73.4,60.8,65,30.13,10.0,SE,6.9,-,N/A,,Clear,140,2013-08-18 22:56:00
7:16 PM,71.6,60.8,69,30.13,10.0,SSE,4.6,-,N/A,,Clear,150,2013-08-18 23:16:00
7:37 PM,71.6,60.8,69,30.14,10.0,SSE,4.6,-,N/A,,Mostly Cloudy,160,2013-08-18 23:37:00
7:56 PM,69.8,60.8,73,30.14,10.0,SSE,4.6,-,N/A,,Scattered Clouds,150,2013-08-18 23:56:00
8:16 PM,68.0,60.8,78,30.14,10.0,SSE,3.5,-,N/A,,Clear,160,2013-08-19 00:16:00
8:37 PM,68.0,60.8,78,30.14,10.0,SSE,3.5,-,N/A,,Clear,150,2013-08-19 00:37:00
8:56 PM,66.2,60.8,83,30.14,10.0,SE,3.5,-,N/A,,Clear,140,2013-08-19 00:56:00
9:16 PM,64.4,60.8,88,30.15,10.0,SE,3.5,-,N/A,,Clear,140,2013-08-19 01:16:00
9:37 PM,64.4,60.8,88,30.15,10.0,Calm,Calm,-,N/A,,Clear,0,2013-08-19 01:37:00
9:56 PM,62.6,60.8,94,30.16,10.0,SE,3.5,-,N/A,,Clear,140,2013-08-19 01:56:00
10:17 PM,62.6,59.0,88,30.16,10.0,Calm,Calm,-,N/A,,Clear,0,2013-08-19 02:17:00
10:37 PM,60.8,59.0,94,30.17,10.0,Calm,Calm,-,N/A,,Clear,0,2013-08-19 02:37:00
10:56 PM,60.8,59.0,94,30.17,10.0,Calm,Calm,-,N/A,,Clear,0,2013-08-19 02:56:00
11:17 PM,60.8,59.0,94,30.17,10.0,Calm,Calm,-,N/A,,Clear,0,2013-08-19 03:17:00
11:37 PM,60.8,57.2,88,30.17,10.0,Calm,Calm,-,N/A,,Clear,0,2013-08-19 03:37:00
11:56 PM,59.0,57.2,94,30.17,10.0,Calm,Calm,-,N/A,,Clear,0,2013-08-19 03:56:00